Location: Junction City
(42.7860°N, 96.7861°W)
Time: 19:30:59
(UTC+00:00)

N. Korean satellite - Visible Passes

Search period start: 30 November 2020 00:00
Search period end: 10 December 2020 00:00
Orbit: 453 x 504 km, 97.2° (Epoch: 29 November)

Date Brightness Start Highest point End Pass type
(mag) Time Alt. Az. Time Alt. Az. Time Alt. Az.
30 Nov 10.0 10:54:44 10° ENE 10:56:24 13° E 10:58:04 10° ESE visible
30 Nov 6.9 12:26:30 10° N 12:29:55 41° WNW 12:33:22 10° SW visible
01 Dec 6.5 12:00:02 10° NNE 12:03:40 87° ESE 12:07:20 10° SSW visible
02 Dec 9.8 00:10:45 10° SW 00:12:37 14° W 00:14:29 10° WNW visible
02 Dec 8.0 11:33:53 10° NNE 11:37:19 38° E 11:40:46 10° SSE visible
02 Dec 8.8 23:43:06 10° SSW 23:46:07 29° W 23:49:11 10° NW visible
03 Dec 9.4 11:08:13 10° NE 11:10:52 19° E 11:13:32 10° SE visible
03 Dec 7.5 12:41:04 10° N 12:44:12 28° WNW 12:47:22 10° SW visible
04 Dec 6.6 12:14:23 10° N 12:17:59 60° WNW 12:21:36 10° SSW visible
05 Dec 7.1 11:48:01 10° NNE 11:51:39 61° E 11:55:17 10° S visible
05 Dec 9.5 23:57:54 10° SW 00:00:27 19° W 00:03:03 10° NW visible
06 Dec 8.7 11:22:01 10° NE 11:25:13 28° E 11:28:25 10° SSE visible
06 Dec 7.9 12:55:41 10° NNW 12:58:22 20° WNW 13:01:05 10° WSW visible
06 Dec 8.0 23:30:41 10° S 23:33:58 42° W 23:37:18 10° NNW visible
07 Dec 9.8 10:56:43 10° ENE 10:58:42 14° E 11:00:40 10° SE visible
07 Dec 7.0 12:28:44 10° N 12:32:10 39° WNW 12:35:37 10° SW visible
08 Dec 6.5 12:02:11 10° N 12:05:52 86° WNW 12:09:34 10° SSW visible
09 Dec 9.8 00:13:01 10° WSW 00:14:44 13° W 00:16:30 10° WNW visible
09 Dec 7.9 11:35:57 10° NNE 11:39:28 42° E 11:42:59 10° S visible
09 Dec 8.3 13:10:29 10° NNW 13:12:26 14° WNW 13:14:23 10° W visible
09 Dec 8.9 23:45:10 10° SSW 23:48:10 27° W 23:51:13 10° NW visible
